,,,PA_Meas_PMT16A,,PR_Meas_QMR101_102,,RH_Meas_QMH101,,SR_Meas_QMS101,,TA_Meas_QMH101,,GenWind,,GenWind,
date,time,status,PA,status,PR,status,RH,status,SR,status,TA,status,DirAvg,status,SpdAvg,
2010-05-25, 00:00:05,VALID,1001.2,VALID,0,VALID,91.6851,VALID,0,VALID,24.2476,VALID,34,VALID,0.935547,
2010-05-25, 00:01:05,VALID,1001.21,VALID,0,VALID,91.8835,VALID,0,VALID,24.2671,VALID,45,VALID,1.07969,
2010-05-25, 00:02:05,VALID,1001.21,VALID,0,VALID,92.0209,VALID,0,VALID,24.2653,VALID,51,VALID,1.1082,
2010-05-25, 00:03:05,VALID,1001.21,VALID,0,VALID,92.0361,VALID,0,VALID,24.2671,VALID,65,VALID,1.19648,
2010-05-25, 00:04:05,VALID,1001.16,VALID,0,VALID,92.0132,VALID,0,VALID,24.2866,VALID,65,VALID,1.07422,
2010-05-25, 00:05:05,VALID,1001.15,VALID,0,VALID,92.0285,VALID,0,VALID,24.308,VALID,66,VALID,1.08125,
2010-05-25, 00:06:05,VALID,1001.14,VALID,0,VALID,92.0285,VALID,0,VALID,24.2458,VALID,66,VALID,0.910156,
2010-05-25, 00:07:05,VALID,1001.11,VALID,0,VALID,92.1124,VALID,0,VALID,24.2866,VALID,66,VALID,0.883984,
2010-05-25, 00:08:05,VALID,1001.13,VALID,0,VALID,92.1582,VALID,0,VALID,24.2866,VALID,66,VALID,0.812891,
2010-05-25, 00:09:05,VALID,1001.09,VALID,0,VALID,92.1506,VALID,0,VALID,24.2866,VALID,66,VALID,0.707031,
2010-05-25, 00:10:05,VALID,1001.11,VALID,0,VALID,92.0743,VALID,0,VALID,24.2885,VALID,66,VALID,0.594922,
2010-05-25, 00:11:05,VALID,1001.1,VALID,0,VALID,92.1048,VALID,0,VALID,24.2671,VALID,66,VALID,0.512891,
2010-05-25, 00:12:05,VALID,1001.07,VALID,0,VALID,92.0743,VALID,0,VALID,24.2476,VALID,66,VALID,0.426172,
2010-05-25, 00:13:05,VALID,1001.06,VALID,0,VALID,92.059,VALID,0,VALID,24.2281,VALID,66,VALID,0.553125,
2010-05-25, 00:14:05,VALID,1001.05,VALID,0,VALID,92.0895,VALID,0,VALID,24.2281,VALID,66,VALID,0.599609,
2010-05-25, 00:15:05,VALID,1001.01,VALID,0,VALID,92.1811,VALID,0,VALID,24.1891,VALID,66,VALID,0.53125,
2010-05-25, 00:16:05,VALID,1000.99,VALID,0,VALID,92.2116,VALID,0,VALID,24.1891,VALID,66,VALID,0.523828,
2010-05-25, 00:17:05,VALID,1000.96,VALID,0,VALID,92.2268,VALID,0,VALID,24.1696,VALID,66,VALID,0.380859,
2010-05-25, 00:18:05,VALID,1000.95,VALID,0,VALID,92.1734,VALID,0,VALID,24.15,VALID,66,VALID,0.315625,
2010-05-25, 00:19:05,VALID,1000.95,VALID,0,VALID,92.1582,VALID,0,VALID,24.1305,VALID,66,VALID,0.122266,
2010-05-25, 00:20:05,VALID,1000.92,VALID,0,VALID,92.1734,VALID,0,VALID,24.1305,VALID,66,VALID,0,
2010-05-25, 00:21:05,VALID,1000.93,VALID,0,VALID,92.1506,VALID,0,VALID,24.1324,VALID,66,VALID,0,
2010-05-25, 00:22:05,VALID,1000.92,VALID,0,VALID,92.1658,VALID,0,VALID,24.0915,VALID,66,VALID,0,
2010-05-25, 00:23:05,VALID,1000.9,VALID,0,VALID,92.2192,VALID,0,VALID,24.072,VALID,66,VALID,0,
2010-05-25, 00:24:05,VALID,1000.9,VALID,0,VALID,92.3108,VALID,0,VALID,24.072,VALID,66,VALID,0,
2010-05-25, 00:25:05,VALID,1000.9,VALID,0,VALID,92.326,VALID,0,VALID,24.0915,VALID,66,VALID,0,
2010-05-25, 00:26:05,VALID,1000.88,VALID,0,VALID,92.3413,VALID,0,VALID,24.072,VALID,66,VALID,0,
2010-05-25, 00:27:05,VALID,1000.89,VALID,0,VALID,92.3642,VALID,0,VALID,24.0915,VALID,66,VALID,0,
2010-05-25, 00:28:05,VALID,1000.83,VALID,0,VALID,92.3794,VALID,0,VALID,24.072,VALID,66,VALID,0.380469,
2010-05-25, 00:29:05,VALID,1000.8,VALID,0,VALID,92.3718,VALID,0,VALID,24.072,VALID,66,VALID,0.268359,
2010-05-25, 00:30:05,VALID,1000.79,VALID,0,VALID,92.3794,VALID,0,VALID,24.0525,VALID,66,VALID,0.201172,
2010-05-25, 00:31:05,VALID,1000.77,VALID,0,VALID,92.3871,VALID,0,VALID,24.0525,VALID,66,VALID,0.132031,
2010-05-25, 00:32:05,VALID,1000.75,VALID,0,VALID,92.471,VALID,0,VALID,24.072,VALID,66,VALID,0,
2010-05-25, 00:33:05,VALID,1000.69,VALID,0,VALID,92.5473,VALID,0,VALID,24.072,VALID,66,VALID,0.157422,
2010-05-25, 00:34:05,VALID,1000.69,VALID,0,VALID,92.6083,VALID,0,VALID,24.0915,VALID,66,VALID,0.221875,
2010-05-25, 00:35:05,VALID,1000.66,VALID,0,VALID,92.6465,VALID,0,VALID,24.111,VALID,66,VALID,0.111719,
2010-05-25, 00:36:05,VALID,1000.61,VALID,0,VALID,92.6694,VALID,0,VALID,24.1305,VALID,66,VALID,0,
2010-05-25, 00:37:05,VALID,1000.56,VALID,0,VALID,92.6846,VALID,0,VALID,24.1714,VALID,66,VALID,0,
2010-05-25, 00:38:05,VALID,1000.56,VALID,0,VALID,92.6541,VALID,0,VALID,24.1696,VALID,66,VALID,0.153906,
2010-05-25, 00:39:05,VALID,1000.56,VALID,0,VALID,92.6236,VALID,0,VALID,24.1891,VALID,66,VALID,0,
2010-05-25, 00:40:05,VALID,1000.55,VALID,0,VALID,92.6541,VALID,0,VALID,24.1891,VALID,66,VALID,0.342578,
2010-05-25, 00:41:05,VALID,1000.5,VALID,0,VALID,92.6083,VALID,0,VALID,24.2281,VALID,66,VALID,0.253906,
2010-05-25, 00:42:05,VALID,1000.51,VALID,0,VALID,92.5244,VALID,0,VALID,24.2476,VALID,66,VALID,0.434375,
2010-05-25, 00:43:05,VALID,1000.53,VALID,0,VALID,92.4176,VALID,0,VALID,24.2476,VALID,66,VALID,0.632813,
2010-05-25, 00:44:05,VALID,1000.53,VALID,0,VALID,92.3031,VALID,0,VALID,24.2476,VALID,66,VALID,0.610156,
2010-05-25, 00:45:05,VALID,1000.5,VALID,0,VALID,92.1963,VALID,0,VALID,24.2476,VALID,66,VALID,0.499609,
2010-05-25, 00:46:05,VALID,1000.53,VALID,0,VALID,92.1353,VALID,0,VALID,24.2476,VALID,66,VALID,0.382031,
2010-05-25, 00:47:05,VALID,1000.52,VALID,0,VALID,92.0285,VALID,0,VALID,24.2671,VALID,66,VALID,0.261719,
2010-05-25, 00:48:05,VALID,1000.49,VALID,0,VALID,91.8988,VALID,0,VALID,24.2476,VALID,66,VALID,0.492188,
2010-05-25, 00:49:05,VALID,1000.5,VALID,0,VALID,91.7691,VALID,0,VALID,24.2476,VALID,45,VALID,0.638281,
2010-05-25, 00:50:05,VALID,1000.48,VALID,0,VALID,91.7233,VALID,0,VALID,24.2281,VALID,30,VALID,0.591406,
2010-05-25, 00:51:05,VALID,1000.46,VALID,0,VALID,91.7309,VALID,0,VALID,24.2086,VALID,30,VALID,0.532422,
2010-05-25, 00:52:05,VALID,1000.46,VALID,0,VALID,91.8301,VALID,0,VALID,24.1677,VALID,30,VALID,0.451172,
2010-05-25, 00:53:05,VALID,1000.41,VALID,0,VALID,91.914,VALID,0,VALID,24.1696,VALID,30,VALID,0.377734,
2010-05-25, 00:54:05,VALID,1000.43,VALID,0,VALID,92.0209,VALID,0,VALID,24.1696,VALID,30,VALID,0.471094,
2010-05-25, 00:55:05,VALID,1000.42,VALID,0,VALID,92.1353,VALID,0,VALID,24.1305,VALID,30,VALID,0.338672,
2010-05-25, 00:56:05,VALID,1000.38,VALID,0,VALID,92.265,VALID,0,VALID,24.1305,VALID,30,VALID,0.0859375,
2010-05-25, 00:57:05,VALID,1000.41,VALID,0,VALID,92.3031,VALID,0,VALID,24.111,VALID,30,VALID,0,
2010-05-25, 00:58:05,VALID,1000.42,VALID,0,VALID,92.3489,VALID,0,VALID,24.0915,VALID,30,VALID,0.179688,
2010-05-25, 00:59:05,VALID,1000.41,VALID,0,VALID,92.4176,VALID,0,VALID,24.0915,VALID,30,VALID,0.18125,
2010-05-25, 01:00:05,VALID,1000.36,VALID,0,VALID,92.4786,VALID,0,VALID,24.072,VALID,30,VALID,0.292969,
2010-05-25, 01:01:05,VALID,1000.36,VALID,0,VALID,92.5549,VALID,0,VALID,24.072,VALID,30,VALID,0.530859,
2010-05-25, 01:02:05,VALID,1000.33,VALID,0,VALID,92.6312,VALID,0,VALID,24.072,VALID,30,VALID,0.497656,
2010-05-25, 01:03:05,VALID,1000.32,VALID,0,VALID,92.677,VALID,0,VALID,24.0506,VALID,30,VALID,0.558984,
2010-05-25, 01:04:05,VALID,1000.3,VALID,0,VALID,92.6999,VALID,0,VALID,24.0915,VALID,30,VALID,0.574609,
2010-05-25, 01:05:05,VALID,1000.29,VALID,0,VALID,92.7075,VALID,0,VALID,24.111,VALID,30,VALID,0.520703,
2010-05-25, 01:06:05,VALID,1000.29,VALID,0,VALID,92.6999,VALID,0,VALID,24.0915,VALID,30,VALID,0.411719,
2010-05-25, 01:07:05,VALID,1000.29,VALID,0,VALID,92.7151,VALID,0,VALID,24.111,VALID,30,VALID,0.463281,
2010-05-25, 01:08:05,VALID,1000.26,VALID,0,VALID,92.7075,VALID,0,VALID,24.111,VALID,30,VALID,0.425781,
2010-05-25, 01:09:05,VALID,1000.27,VALID,0,VALID,92.6923,VALID,0,VALID,24.1305,VALID,30,VALID,0.283203,
2010-05-25, 01:10:05,VALID,1000.26,VALID,0,VALID,92.6694,VALID,0,VALID,24.15,VALID,30,VALID,0.257813,
2010-05-25, 01:11:05,VALID,1000.23,VALID,0,VALID,92.6312,VALID,0,VALID,24.1696,VALID,30,VALID,0.272266,
2010-05-25, 01:12:05,VALID,1000.23,VALID,0,VALID,92.6083,VALID,0,VALID,24.1696,VALID,30,VALID,0.278125,
2010-05-25, 01:13:05,VALID,1000.17,VALID,0,VALID,92.5778,VALID,0,VALID,24.1696,VALID,30,VALID,0.155078,
2010-05-25, 01:14:05,VALID,1000.18,VALID,0,VALID,92.5549,VALID,0,VALID,24.1696,VALID,30,VALID,0.00117188,
2010-05-25, 01:15:05,VALID,1000.15,VALID,0,VALID,92.5244,VALID,0,VALID,24.1696,VALID,30,VALID,0,
2010-05-25, 01:16:05,VALID,1000.13,VALID,0,VALID,92.4939,VALID,0,VALID,24.1677,VALID,30,VALID,0,
2010-05-25, 01:17:05,VALID,1000.09,VALID,0,VALID,92.4863,VALID,0,VALID,24.1696,VALID,30,VALID,0,
2010-05-25, 01:18:05,VALID,1000.09,VALID,0,VALID,92.4863,VALID,0,VALID,24.1891,VALID,30,VALID,0,
2010-05-25, 01:19:05,VALID,1000.05,VALID,0,VALID,92.4176,VALID,0,VALID,24.1891,VALID,30,VALID,0,
2010-05-25, 01:20:05,VALID,1000.02,VALID,0,VALID,92.3489,VALID,0,VALID,24.1891,VALID,30,VALID,0.0199219,
2010-05-25, 01:21:05,VALID,999.999,VALID,0,VALID,92.2192,VALID,0,VALID,24.1696,VALID,30,VALID,0.0316406,
2010-05-25, 01:22:05,VALID,999.992,VALID,0,VALID,92.1429,VALID,0,VALID,24.2086,VALID,30,VALID,0,
2010-05-25, 01:23:05,VALID,999.99,VALID,0,VALID,92.0514,VALID,0,VALID,24.2086,VALID,30,VALID,0,
2010-05-25, 01:24:05,VALID,999.966,VALID,0,VALID,91.9598,VALID,0,VALID,24.2281,VALID,30,VALID,0,
2010-05-25, 01:25:05,VALID,999.947,VALID,0,VALID,91.8683,VALID,0,VALID,24.2281,VALID,30,VALID,0.260938,
2010-05-25, 01:26:05,VALID,999.927,VALID,0,VALID,91.6775,VALID,0,VALID,24.2476,VALID,30,VALID,0.246484,
2010-05-25, 01:27:05,VALID,999.915,VALID,0,VALID,91.4715,VALID,0,VALID,24.2671,VALID,30,VALID,0.217578,
2010-05-25, 01:28:05,VALID,999.867,VALID,0,VALID,91.3037,VALID,0,VALID,24.2671,VALID,30,VALID,0.071875,
2010-05-25, 01:29:05,VALID,999.858,VALID,0,VALID,91.3494,VALID,0,VALID,24.2866,VALID,30,VALID,0.0230469,
2010-05-25, 01:30:05,VALID,999.86,VALID,0,VALID,91.6546,VALID,0,VALID,24.3257,VALID,30,VALID,0.434375,
2010-05-25, 01:31:05,VALID,999.827,VALID,0,VALID,91.7385,VALID,0,VALID,24.3257,VALID,340,VALID,0.316406,
2010-05-25, 01:32:05,VALID,999.838,VALID,0,VALID,91.7462,VALID,0,VALID,24.3452,VALID,340,VALID,0.390625,
2010-05-25, 01:33:05,VALID,999.823,VALID,0,VALID,91.7233,VALID,0,VALID,24.3452,VALID,340,VALID,0.371484,
2010-05-25, 01:34:05,VALID,999.792,VALID,0,VALID,91.708,VALID,0,VALID,24.3666,VALID,340,VALID,0.167969,
2010-05-25, 01:35:05,VALID,999.754,VALID,0,VALID,91.7843,VALID,0,VALID,24.3452,VALID,340,VALID,0,
2010-05-25, 01:36:05,VALID,999.737,VALID,0,VALID,91.8835,VALID,0,VALID,24.3452,VALID,340,VALID,0,
2010-05-25, 01:37:05,VALID,999.658,VALID,0,VALID,91.9827,VALID,0,VALID,24.3452,VALID,340,VALID,0,
2010-05-25, 01:38:05,VALID,999.681,VALID,0,VALID,92.059,VALID,0,VALID,24.3452,VALID,340,VALID,0.201172,
2010-05-25, 01:39:05,VALID,999.649,VALID,0,VALID,92.0743,VALID,0,VALID,24.347,VALID,340,VALID,0.475781,
2010-05-25, 01:40:05,VALID,999.634,VALID,0,VALID,92.1124,VALID,0,VALID,24.3452,VALID,340,VALID,0.380859,
2010-05-25, 01:41:05,VALID,999.621,VALID,0,VALID,92.12,VALID,0,VALID,24.3452,VALID,340,VALID,0.322656,
2010-05-25, 01:42:05,VALID,999.564,VALID,0,VALID,92.1506,VALID,0,VALID,24.3452,VALID,340,VALID,0.380078,
2010-05-25, 01:43:05,VALID,999.591,VALID,0,VALID,92.1506,VALID,0,VALID,24.3257,VALID,340,VALID,0.302344,
2010-05-25, 01:44:05,VALID,999.557,VALID,0,VALID,92.1353,VALID,0,VALID,24.3666,VALID,340,VALID,0.117969,
2010-05-25, 01:45:05,VALID,999.57,VALID,0,VALID,92.1277,VALID,0,VALID,24.3257,VALID,340,VALID,0,
2010-05-25, 01:46:05,VALID,999.555,VALID,0,VALID,92.1429,VALID,0,VALID,24.3062,VALID,340,VALID,0,
2010-05-25, 01:47:05,VALID,999.56,VALID,0,VALID,92.1582,VALID,0,VALID,24.3062,VALID,340,VALID,0,
2010-05-25, 01:48:05,VALID,999.542,VALID,0,VALID,92.1658,VALID,0,VALID,24.2848,VALID,340,VALID,0,
2010-05-25, 01:49:05,VALID,999.509,VALID,0,VALID,92.2116,VALID,0,VALID,24.2848,VALID,340,VALID,0,
2010-05-25, 01:50:05,VALID,999.49,VALID,0,VALID,92.2574,VALID,0.112286,VALID,24.2653,VALID,340,VALID,0,
2010-05-25, 01:51:05,VALID,999.467,VALID,0,VALID,92.3184,VALID,0,VALID,24.2653,VALID,340,VALID,0,
2010-05-25, 01:52:05,VALID,999.417,VALID,0,VALID,92.3718,VALID,0,VALID,24.2671,VALID,340,VALID,0.248437,
2010-05-25, 01:53:05,VALID,999.435,VALID,0,VALID,92.4328,VALID,0,VALID,24.2458,VALID,340,VALID,0.323828,
2010-05-25, 01:54:05,VALID,999.411,VALID,0,VALID,92.4863,VALID,0,VALID,24.2263,VALID,340,VALID,0.326172,
2010-05-25, 01:55:05,VALID,999.389,VALID,0,VALID,92.5702,VALID,0,VALID,24.2263,VALID,340,VALID,0.376563,
2010-05-25, 01:56:05,VALID,999.387,VALID,0,VALID,92.6388,VALID,0,VALID,24.2263,VALID,340,VALID,0.303516,
2010-05-25, 01:57:05,VALID,999.372,VALID,0,VALID,92.6541,VALID,0.112286,VALID,24.2067,VALID,340,VALID,0.29375,
2010-05-25, 01:58:05,VALID,999.357,VALID,0,VALID,92.6923,VALID,0.112286,VALID,24.1872,VALID,340,VALID,0.230859,
2010-05-25, 01:59:05,VALID,999.364,VALID,0,VALID,92.6923,VALID,0.112286,VALID,24.1872,VALID,340,VALID,0,
2010-05-25, 02:00:05,VALID,999.353,VALID,0,VALID,92.6923,VALID,0,VALID,24.1872,VALID,340,VALID,0,
2010-05-25, 02:01:05,VALID,999.339,VALID,0,VALID,92.6999,VALID,0,VALID,24.1872,VALID,340,VALID,0,
2010-05-25, 02:02:05,VALID,999.31,VALID,0,VALID,92.6999,VALID,0.112286,VALID,24.2067,VALID,340,VALID,0,
2010-05-25, 02:03:05,VALID,999.298,VALID,0,VALID,92.7228,VALID,0,VALID,24.2086,VALID,340,VALID,0,
2010-05-25, 02:04:05,VALID,999.267,VALID,0,VALID,92.6999,VALID,0,VALID,24.2086,VALID,340,VALID,0,
2010-05-25, 02:05:05,VALID,999.226,VALID,0,VALID,92.6999,VALID,0,VALID,24.1891,VALID,340,VALID,0,
2010-05-25, 02:06:05,VALID,999.234,VALID,0,VALID,92.7151,VALID,0,VALID,24.1891,VALID,340,VALID,0,
2010-05-25, 02:07:05,VALID,999.221,VALID,0,VALID,92.7075,VALID,0,VALID,24.1891,VALID,340,VALID,0,
2010-05-25, 02:08:05,VALID,999.224,VALID,0,VALID,92.6846,VALID,0,VALID,24.15,VALID,340,VALID,0,
2010-05-25, 02:09:05,VALID,999.222,VALID,0,VALID,92.6846,VALID,0,VALID,24.15,VALID,340,VALID,0,
2010-05-25, 02:10:05,VALID,999.195,VALID,0,VALID,92.6923,VALID,0,VALID,24.15,VALID,340,VALID,0,
2010-05-25, 02:11:05,VALID,999.19,VALID,0,VALID,92.677,VALID,0,VALID,24.1305,VALID,340,VALID,0,
2010-05-25, 02:12:05,VALID,999.197,VALID,0,VALID,92.6694,VALID,0,VALID,24.111,VALID,340,VALID,0,
2010-05-25, 02:13:05,VALID,999.199,VALID,0,VALID,92.7075,VALID,0,VALID,24.0915,VALID,340,VALID,0,
2010-05-25, 02:14:05,VALID,999.175,VALID,0,VALID,92.7228,VALID,0,VALID,24.072,VALID,340,VALID,0,
2010-05-25, 02:15:05,VALID,999.201,VALID,0,VALID,92.7991,VALID,0,VALID,24.111,VALID,340,VALID,0,
2010-05-25, 02:16:05,VALID,999.174,VALID,0,VALID,92.8372,VALID,0,VALID,24.1324,VALID,340,VALID,0,
2010-05-25, 02:17:05,VALID,999.193,VALID,0,VALID,92.8525,VALID,0,VALID,24.111,VALID,340,VALID,0,
2010-05-25, 02:18:05,VALID,999.18,VALID,0,VALID,92.7991,VALID,0,VALID,24.0915,VALID,340,VALID,0,
2010-05-25, 02:19:05,VALID,999.196,VALID,0,VALID,92.6694,VALID,0,VALID,24.0915,VALID,340,VALID,0,
2010-05-25, 02:20:05,VALID,999.174,VALID,0,VALID,92.5931,VALID,0,VALID,24.0897,VALID,340,VALID,0,
2010-05-25, 02:21:05,VALID,999.165,VALID,0,VALID,92.4405,VALID,0,VALID,24.0915,VALID,350,VALID,0,
2010-05-25, 02:22:05,VALID,999.179,VALID,0,VALID,92.1582,VALID,0,VALID,24.0915,VALID,104,VALID,0.735937,
2010-05-25, 02:23:05,VALID,999.186,VALID,0,VALID,91.6394,VALID,0,VALID,24.111,VALID,112,VALID,1.07031,
2010-05-25, 02:24:05,VALID,999.172,VALID,0,VALID,90.9985,VALID,0,VALID,24.1891,VALID,115,VALID,1.19766,
2010-05-25, 02:25:05,VALID,999.154,VALID,0,VALID,90.5865,VALID,0,VALID,24.2281,VALID,116,VALID,1.13711,
2010-05-25, 02:26:05,VALID,999.184,VALID,0,VALID,90.5102,VALID,0,VALID,24.3062,VALID,121,VALID,1.01797,
2010-05-25, 02:27:05,VALID,999.168,VALID,0,VALID,90.4797,VALID,0,VALID,24.3043,VALID,121,VALID,0.859766,
2010-05-25, 02:28:05,VALID,999.165,VALID,0,VALID,90.4873,VALID,0,VALID,24.3238,VALID,121,VALID,0.680078,
2010-05-25, 02:29:05,VALID,999.147,VALID,0,VALID,90.35,VALID,0,VALID,24.3238,VALID,122,VALID,0.607422,
2010-05-25, 02:30:05,VALID,999.127,VALID,0,VALID,90.2431,VALID,0,VALID,24.3257,VALID,136,VALID,0.578516,
2010-05-25, 02:31:05,VALID,999.164,VALID,0,VALID,89.9227,VALID,0,VALID,24.3043,VALID,149,VALID,0.69375,
2010-05-25, 02:32:05,VALID,999.118,VALID,0,VALID,89.7854,VALID,0,VALID,24.3257,VALID,149,VALID,0.504687,
2010-05-25, 02:33:05,VALID,999.085,VALID,0,VALID,89.6099,VALID,0,VALID,24.3062,VALID,149,VALID,0.508594,
2010-05-25, 02:34:05,VALID,999.098,VALID,0,VALID,89.4649,VALID,0,VALID,24.3257,VALID,149,VALID,0.486328,
2010-05-25, 02:35:05,VALID,999.107,VALID,0,VALID,89.3276,VALID,0,VALID,24.3257,VALID,151,VALID,0.530469,
2010-05-25, 02:36:05,VALID,999.106,VALID,0,VALID,89.2589,VALID,0,VALID,24.3257,VALID,151,VALID,0.459766,
2010-05-25, 02:37:04,VALID,999.109,VALID,0,VALID,89.1674,VALID,0,VALID,24.3433,VALID,151,VALID,0.397656,
2010-05-25, 02:38:04,VALID,999.098,VALID,0,VALID,89.1445,VALID,0,VALID,24.3647,VALID,151,VALID,0.059375,
2010-05-25, 02:39:04,VALID,999.122,VALID,0,VALID,89.5641,VALID,0,VALID,24.3842,VALID,151,VALID,0,
2010-05-25, 02:40:04,VALID,999.154,VALID,0,VALID,89.7396,VALID,0,VALID,24.3452,VALID,151,VALID,0.152344,
2010-05-25, 02:41:04,VALID,999.12,VALID,0,VALID,89.9303,VALID,0,VALID,24.3257,VALID,151,VALID,0.310937,
2010-05-25, 02:42:04,VALID,999.173,VALID,0,VALID,90.0524,VALID,0,VALID,24.3257,VALID,151,VALID,0.272266,
2010-05-25, 02:43:04,VALID,999.211,VALID,0,VALID,90.2889,VALID,0,VALID,24.3062,VALID,151,VALID,0.0433594,
2010-05-25, 02:44:04,VALID,999.192,VALID,0,VALID,90.4186,VALID,0,VALID,24.2866,VALID,151,VALID,0.0410156,
2010-05-25, 02:45:04,VALID,999.223,VALID,0,VALID,90.4949,VALID,0,VALID,24.2458,VALID,151,VALID,0,
2010-05-25, 02:46:04,VALID,999.212,VALID,0,VALID,90.4644,VALID,0,VALID,24.2281,VALID,151,VALID,0.00195313,
2010-05-25, 02:47:04,VALID,999.191,VALID,0,VALID,90.3957,VALID,0,VALID,24.2086,VALID,151,VALID,0.257422,
2010-05-25, 02:48:04,VALID,999.193,VALID,0,VALID,90.3423,VALID,0,VALID,24.2281,VALID,151,VALID,0.219141,
2010-05-25, 02:49:04,VALID,999.156,VALID,0,VALID,90.2813,VALID,0,VALID,24.1891,VALID,151,VALID,0.310156,
2010-05-25, 02:50:04,VALID,999.18,VALID,0,VALID,90.4263,VALID,0,VALID,24.2086,VALID,151,VALID,0.437109,
2010-05-25, 02:51:04,VALID,999.145,VALID,0,VALID,90.4644,VALID,0,VALID,24.2086,VALID,151,VALID,0.316016,
2010-05-25, 02:52:04,VALID,999.173,VALID,0,VALID,90.6094,VALID,0,VALID,24.2281,VALID,151,VALID,0.0507813,
2010-05-25, 02:53:04,VALID,999.157,VALID,0,VALID,90.9832,VALID,0,VALID,24.2263,VALID,151,VALID,0.321484,
2010-05-25, 02:54:04,VALID,999.144,VALID,0,VALID,91.2045,VALID,0,VALID,24.2476,VALID,151,VALID,0.1625,
2010-05-25, 02:55:04,VALID,999.164,VALID,0,VALID,91.2045,VALID,0,VALID,24.2263,VALID,151,VALID,0.0535156,
2010-05-25, 02:56:04,VALID,999.19,VALID,0,VALID,91.1587,VALID,0,VALID,24.2495,VALID,151,VALID,0,
2010-05-25, 02:57:04,VALID,999.155,VALID,0,VALID,91.296,VALID,0,VALID,24.2281,VALID,151,VALID,0.0609375,
2010-05-25, 02:58:04,VALID,999.167,VALID,0,VALID,91.4868,VALID,0,VALID,24.2086,VALID,151,VALID,0.15625,
2010-05-25, 02:59:04,VALID,999.166,VALID,0,VALID,91.6851,VALID,0,VALID,24.2086,VALID,151,VALID,0.2375,
2010-05-25, 03:00:04,VALID,999.152,VALID,0,VALID,91.7691,VALID,0,VALID,24.2281,VALID,151,VALID,0.226172,
2010-05-25, 03:01:04,VALID,999.151,VALID,0,VALID,91.7996,VALID,0,VALID,24.2086,VALID,151,VALID,0.328906,
2010-05-25, 03:02:04,VALID,999.139,VALID,0,VALID,91.8377,VALID,0,VALID,24.1891,VALID,151,VALID,0.233984,
2010-05-25, 03:03:04,VALID,999.13,VALID,0,VALID,91.9369,VALID,0,VALID,24.1696,VALID,151,VALID,0.144531,
2010-05-25, 03:04:04,VALID,999.127,VALID,0,VALID,91.8377,VALID,0,VALID,24.15,VALID,151,VALID,0.328125,
2010-05-25, 03:05:04,VALID,999.132,VALID,0,VALID,91.9293,VALID,0,VALID,24.1305,VALID,146,VALID,0.346484,
2010-05-25, 03:06:04,VALID,999.135,VALID,0,VALID,92.0056,VALID,0,VALID,24.111,VALID,146,VALID,0.248437,
2010-05-25, 03:07:04,VALID,999.132,VALID,0,VALID,91.9903,VALID,0,VALID,24.0915,VALID,146,VALID,0.205859,
2010-05-25, 03:08:04,VALID,999.1,VALID,0,VALID,91.9293,VALID,0,VALID,24.0506,VALID,146,VALID,0,
2010-05-25, 03:09:04,VALID,999.162,VALID,0,VALID,91.914,VALID,0,VALID,24.072,VALID,146,VALID,0,
2010-05-25, 03:10:04,VALID,999.141,VALID,0,VALID,91.9064,VALID,0,VALID,24.0116,VALID,146,VALID,0.0417969,
2010-05-25, 03:11:04,VALID,999.147,VALID,0,VALID,91.8454,VALID,0,VALID,24.0134,VALID,146,VALID,0.246484,
2010-05-25, 03:12:04,VALID,999.136,VALID,0,VALID,91.9445,VALID,0,VALID,24.0329,VALID,146,VALID,0.369531,
2010-05-25, 03:13:04,VALID,999.112,VALID,0,VALID,92.0437,VALID,0,VALID,24.0134,VALID,146,VALID,0.242578,
2010-05-25, 03:14:04,VALID,999.131,VALID,0,VALID,92.1277,VALID,0,VALID,24.0134,VALID,146,VALID,0.239844,
2010-05-25, 03:15:04,VALID,999.13,VALID,0,VALID,92.1811,VALID,0,VALID,24.0134,VALID,146,VALID,0.342187,
2010-05-25, 03:16:04,VALID,999.133,VALID,0,VALID,92.2879,VALID,0,VALID,23.9939,VALID,146,VALID,0.246094,
2010-05-25, 03:17:04,VALID,999.116,VALID,0,VALID,92.3566,VALID,0,VALID,23.9939,VALID,146,VALID,0.173438,
2010-05-25, 03:18:04,VALID,999.133,VALID,0,VALID,92.41,VALID,0,VALID,23.9726,VALID,146,VALID,0.219531,
2010-05-25, 03:19:04,VALID,999.144,VALID,0,VALID,92.471,VALID,0,VALID,23.9744,VALID,146,VALID,0.177344,
2010-05-25, 03:20:04,VALID,999.15,VALID,0,VALID,92.5091,VALID,0,VALID,23.9744,VALID,146,VALID,0.194141,
2010-05-25, 03:21:04,VALID,999.122,VALID,0,VALID,92.532,VALID,0,VALID,23.9549,VALID,146,VALID,0.149219,
2010-05-25, 03:22:04,VALID,999.15,VALID,0,VALID,92.5778,VALID,0,VALID,23.9549,VALID,146,VALID,0.255078,
2010-05-25, 03:23:04,VALID,999.157,VALID,0,VALID,92.6694,VALID,0,VALID,23.9549,VALID,146,VALID,0.276563,
2010-05-25, 03:24:04,VALID,999.159,VALID,0,VALID,92.7457,VALID,0,VALID,23.9744,VALID,146,VALID,0.354688,
2010-05-25, 03:25:04,VALID,999.167,VALID,0,VALID,92.8143,VALID,0,VALID,23.9549,VALID,146,VALID,0.388281,
2010-05-25, 03:26:04,VALID,999.16,VALID,0,VALID,92.8525,VALID,0,VALID,23.9549,VALID,146,VALID,0.302344,
2010-05-25, 03:27:04,VALID,999.178,VALID,0,VALID,92.8906,VALID,0,VALID,23.9744,VALID,146,VALID,0.184766,
2010-05-25, 03:28:04,VALID,999.19,VALID,0,VALID,92.883,VALID,0,VALID,23.9744,VALID,146,VALID,0.178125,
2010-05-25, 03:29:04,VALID,999.206,VALID,0,VALID,92.8601,VALID,0,VALID,23.9744,VALID,146,VALID,0.207031,
2010-05-25, 03:30:04,VALID,999.207,VALID,0,VALID,92.8525,VALID,0,VALID,23.9354,VALID,146,VALID,0.375391,
2010-05-25, 03:31:04,VALID,999.166,VALID,0,VALID,92.8525,VALID,0,VALID,23.9354,VALID,146,VALID,0.356641,
2010-05-25, 03:32:04,VALID,999.149,VALID,0,VALID,92.9211,VALID,0,VALID,23.9159,VALID,146,VALID,0.361719,
2010-05-25, 03:33:04,VALID,999.189,VALID,0,VALID,92.9364,VALID,0,VALID,23.8963,VALID,146,VALID,0.352344,
2010-05-25, 03:34:04,VALID,999.188,VALID,0,VALID,92.9288,VALID,0,VALID,23.8963,VALID,146,VALID,0.444531,
2010-05-25, 03:35:04,VALID,999.236,VALID,0,VALID,92.822,VALID,0,VALID,23.8573,VALID,100,VALID,0.515625,
2010-05-25, 03:36:04,VALID,999.254,VALID,0,VALID,92.6923,VALID,0,VALID,23.8378,VALID,100,VALID,0.460156,
2010-05-25, 03:37:04,VALID,999.237,VALID,0,VALID,92.5015,VALID,0,VALID,23.8183,VALID,100,VALID,0.362891,
2010-05-25, 03:38:04,VALID,999.273,VALID,0,VALID,92.3642,VALID,0,VALID,23.8378,VALID,60,VALID,0.680859,
2010-05-25, 03:39:04,VALID,999.275,VALID,0,VALID,92.2268,VALID,0,VALID,23.8165,VALID,59,VALID,0.706641,
2010-05-25, 03:40:04,VALID,999.249,VALID,0,VALID,92.1353,VALID,0,VALID,23.8378,VALID,59,VALID,0.751172,
2010-05-25, 03:41:04,VALID,999.251,VALID,0,VALID,92.0209,VALID,0,VALID,23.8573,VALID,59,VALID,0.787891,
2010-05-25, 03:42:04,VALID,999.262,VALID,0,VALID,92.0361,VALID,0,VALID,23.8573,VALID,59,VALID,0.916406,
2010-05-25, 03:43:04,VALID,999.271,VALID,0,VALID,92.0514,VALID,0,VALID,23.8963,VALID,53,VALID,1.02773,
2010-05-25, 03:44:04,VALID,999.254,VALID,0,VALID,92.0666,VALID,0,VALID,23.8945,VALID,53,VALID,0.928125,
2010-05-25, 03:45:04,VALID,999.258,VALID,0,VALID,91.9674,VALID,0,VALID,23.8963,VALID,53,VALID,0.871484,
2010-05-25, 03:46:04,VALID,999.269,VALID,0,VALID,91.8988,VALID,0,VALID,23.8768,VALID,53,VALID,0.655859,
2010-05-25, 03:47:04,VALID,999.247,VALID,0,VALID,91.9217,VALID,0,VALID,23.8768,VALID,53,VALID,0.531641,
2010-05-25, 03:48:04,VALID,999.228,VALID,0,VALID,91.8988,VALID,0,VALID,23.8573,VALID,53,VALID,0.251172,